Year,Month,Day,Hour,Minute,Value (Times are PST for temperature in C)
2021,06,09,00,00,13.10
2021,06,09,00,01,13.10
2021,06,09,00,02,13.10
2021,06,09,00,03,13.10
2021,06,09,00,04,13.10
2021,06,09,00,05,13.10
2021,06,09,00,06,13.10
2021,06,09,00,07,13.10
2021,06,09,00,08,13.10
2021,06,09,00,09,13.10
2021,06,09,00,10,13.10
2021,06,09,00,11,13.10
2021,06,09,00,12,13.00
2021,06,09,00,13,13.00
2021,06,09,00,14,13.00
2021,06,09,00,15,13.00
2021,06,09,00,16,13.00
2021,06,09,00,17,13.00
2021,06,09,00,18,13.00
2021,06,09,00,19,13.00
2021,06,09,00,20,13.00
2021,06,09,00,21,13.00
2021,06,09,00,22,13.00
2021,06,09,00,23,13.00
2021,06,09,00,24,13.00
2021,06,09,00,25,13.00
2021,06,09,00,26,13.00
2021,06,09,00,27,13.00
2021,06,09,00,28,13.00
2021,06,09,00,29,13.00
2021,06,09,00,30,13.00
2021,06,09,00,31,13.00
2021,06,09,00,32,13.00
2021,06,09,00,33,13.00
2021,06,09,00,34,13.00
2021,06,09,00,35,13.00
2021,06,09,00,36,13.00
2021,06,09,00,37,12.90
2021,06,09,00,38,12.90
2021,06,09,00,39,12.90
2021,06,09,00,40,12.90
2021,06,09,00,41,12.90
2021,06,09,00,42,12.90
2021,06,09,00,43,12.90
2021,06,09,00,44,12.90
2021,06,09,00,45,12.90
2021,06,09,00,46,12.90
2021,06,09,00,47,12.90
2021,06,09,00,48,12.90
2021,06,09,00,49,12.80
2021,06,09,00,50,12.80
2021,06,09,00,51,12.80
2021,06,09,00,52,12.80
2021,06,09,00,53,12.80
2021,06,09,00,54,12.80
2021,06,09,00,55,12.80
2021,06,09,00,56,12.80
2021,06,09,00,57,12.80
2021,06,09,00,58,12.80
2021,06,09,00,59,12.80
2021,06,09,01,00,12.70
2021,06,09,01,01,12.70
2021,06,09,01,02,12.70
2021,06,09,01,03,12.70
2021,06,09,01,04,12.70
2021,06,09,01,05,12.70
2021,06,09,01,06,12.60
2021,06,09,01,07,12.60
2021,06,09,01,08,12.60
2021,06,09,01,09,12.60
2021,06,09,01,10,12.60
2021,06,09,01,11,12.60
2021,06,09,01,12,12.60
2021,06,09,01,13,12.50
2021,06,09,01,14,12.50
2021,06,09,01,15,12.50
2021,06,09,01,16,12.50
2021,06,09,01,17,12.50
2021,06,09,01,18,12.50
2021,06,09,01,19,12.40
2021,06,09,01,20,12.40
2021,06,09,01,21,12.40
2021,06,09,01,22,12.40
2021,06,09,01,23,12.40
2021,06,09,01,24,12.40
2021,06,09,01,25,12.40
2021,06,09,01,26,12.40
2021,06,09,01,27,12.30
2021,06,09,01,28,12.30
2021,06,09,01,29,12.30
2021,06,09,01,30,12.30
2021,06,09,01,31,12.30
2021,06,09,01,32,12.30
2021,06,09,01,33,12.30
2021,06,09,01,34,12.30
2021,06,09,01,35,12.30
2021,06,09,01,36,12.30
2021,06,09,01,37,12.30
2021,06,09,01,38,12.30
2021,06,09,01,39,12.30
2021,06,09,01,40,12.30
2021,06,09,01,41,12.30
2021,06,09,01,42,12.30
2021,06,09,01,43,12.30
2021,06,09,01,44,12.30
2021,06,09,01,45,12.30
2021,06,09,01,46,12.30
2021,06,09,01,47,12.30
2021,06,09,01,48,12.30
2021,06,09,01,49,12.30
2021,06,09,01,50,12.30
2021,06,09,01,51,12.30
2021,06,09,01,52,12.30
2021,06,09,01,53,12.30
2021,06,09,01,54,12.30
2021,06,09,01,55,12.30
2021,06,09,01,56,12.30
2021,06,09,01,57,12.30
2021,06,09,01,58,12.30
2021,06,09,01,59,12.30
2021,06,09,02,00,12.30
2021,06,09,02,01,12.30
2021,06,09,02,02,12.30
2021,06,09,02,03,12.30
2021,06,09,02,04,12.30
2021,06,09,02,05,12.30
2021,06,09,02,06,12.20
2021,06,09,02,07,12.20
2021,06,09,02,08,12.20
2021,06,09,02,09,12.10
2021,06,09,02,10,12.10
2021,06,09,02,11,12.10
2021,06,09,02,12,12.00
2021,06,09,02,13,12.00
2021,06,09,02,14,12.00
2021,06,09,02,15,11.90
2021,06,09,02,16,11.90
2021,06,09,02,17,11.90
2021,06,09,02,18,11.80
2021,06,09,02,19,11.80
2021,06,09,02,20,11.80
2021,06,09,02,21,11.80
2021,06,09,02,22,11.80
2021,06,09,02,23,11.80
2021,06,09,02,24,11.80
2021,06,09,02,25,11.80
2021,06,09,02,26,11.80
2021,06,09,02,27,11.80
2021,06,09,02,28,11.80
2021,06,09,02,29,11.80
2021,06,09,02,30,11.80
2021,06,09,02,31,11.80
2021,06,09,02,32,11.80
2021,06,09,02,33,11.80
2021,06,09,02,34,11.80
2021,06,09,02,35,11.80
2021,06,09,02,36,11.80
2021,06,09,02,37,11.80
2021,06,09,02,38,11.80
2021,06,09,02,39,11.80
2021,06,09,02,40,11.80
2021,06,09,02,41,11.80
2021,06,09,02,42,11.80
2021,06,09,02,43,11.80
2021,06,09,02,44,11.80
2021,06,09,02,45,11.80
2021,06,09,02,46,11.80
2021,06,09,02,47,11.80
2021,06,09,02,48,11.70
2021,06,09,02,49,11.80
2021,06,09,02,50,11.80
2021,06,09,02,51,11.80
2021,06,09,02,52,11.80
2021,06,09,02,53,11.80
2021,06,09,02,54,11.80
2021,06,09,02,55,11.80
2021,06,09,02,56,11.80
2021,06,09,02,57,11.80
2021,06,09,02,58,11.80
2021,06,09,02,59,11.70
2021,06,09,03,00,11.70
2021,06,09,03,01,11.70
2021,06,09,03,02,11.70
2021,06,09,03,03,11.70
2021,06,09,03,04,11.70
2021,06,09,03,05,11.70
2021,06,09,03,06,11.70
2021,06,09,03,07,11.70
2021,06,09,03,08,11.70
2021,06,09,03,09,11.70
2021,06,09,03,10,11.70
2021,06,09,03,11,11.70
2021,06,09,03,12,11.70
2021,06,09,03,13,11.70
2021,06,09,03,14,11.70
2021,06,09,03,15,11.70
2021,06,09,03,16,11.70
2021,06,09,03,17,11.70
2021,06,09,03,18,11.70
2021,06,09,03,19,11.70
2021,06,09,03,20,11.70
2021,06,09,03,21,11.60
2021,06,09,03,22,11.60
2021,06,09,03,23,11.60
2021,06,09,03,24,11.60
2021,06,09,03,25,11.60
2021,06,09,03,26,11.60
2021,06,09,03,27,11.60
2021,06,09,03,28,11.60
2021,06,09,03,29,11.60
2021,06,09,03,30,11.60
2021,06,09,03,31,11.60
2021,06,09,03,32,11.60
2021,06,09,03,33,11.60
2021,06,09,03,34,11.60
2021,06,09,03,35,11.60
2021,06,09,03,36,11.60
2021,06,09,03,37,11.60
2021,06,09,03,38,11.60
2021,06,09,03,39,11.60
2021,06,09,03,40,11.60
2021,06,09,03,41,11.60
2021,06,09,03,42,11.60
2021,06,09,03,43,11.60
2021,06,09,03,44,11.60
2021,06,09,03,45,11.60
2021,06,09,03,46,11.60
2021,06,09,03,47,11.60
2021,06,09,03,48,11.60
2021,06,09,03,49,11.60
2021,06,09,03,50,11.60
2021,06,09,03,51,11.60
2021,06,09,03,52,11.60
2021,06,09,03,53,11.50
2021,06,09,03,54,11.50
2021,06,09,03,55,11.40
2021,06,09,03,56,11.40
2021,06,09,03,57,11.40
2021,06,09,03,58,11.40
2021,06,09,03,59,11.40
2021,06,09,04,00,11.40
2021,06,09,04,01,11.40
2021,06,09,04,02,11.40
2021,06,09,04,03,11.40
2021,06,09,04,04,11.40
2021,06,09,04,05,11.40
2021,06,09,04,06,11.40
2021,06,09,04,07,11.40
2021,06,09,04,08,11.40
2021,06,09,04,09,11.40
2021,06,09,04,10,11.40
2021,06,09,04,11,11.40
2021,06,09,04,12,11.40
2021,06,09,04,13,11.40
2021,06,09,04,14,11.40
2021,06,09,04,15,11.40
2021,06,09,04,16,11.40
2021,06,09,04,17,11.40
2021,06,09,04,18,11.40
2021,06,09,04,19,11.40
2021,06,09,04,20,11.40
2021,06,09,04,21,11.40
2021,06,09,04,22,11.40
2021,06,09,04,23,11.40
2021,06,09,04,24,11.40
2021,06,09,04,25,11.40
2021,06,09,04,26,11.40
2021,06,09,04,27,11.40
2021,06,09,04,28,11.40
2021,06,09,04,29,11.40
2021,06,09,04,30,11.40
2021,06,09,04,31,11.40
2021,06,09,04,32,11.40
2021,06,09,04,33,11.40
2021,06,09,04,34,11.40
2021,06,09,04,35,11.40
2021,06,09,04,36,11.30
2021,06,09,04,37,11.30
2021,06,09,04,38,11.30
2021,06,09,04,39,11.30
2021,06,09,04,40,11.30
2021,06,09,04,41,11.30
2021,06,09,04,42,11.30
2021,06,09,04,43,11.20
2021,06,09,04,44,11.20
2021,06,09,04,45,11.20
2021,06,09,04,46,11.20
2021,06,09,04,47,11.20
2021,06,09,04,48,11.20
2021,06,09,04,49,11.20
2021,06,09,04,50,11.20
2021,06,09,04,51,11.20
2021,06,09,04,52,11.20
2021,06,09,04,53,11.20
2021,06,09,04,54,11.20
2021,06,09,04,55,11.10
2021,06,09,04,56,11.10
2021,06,09,04,57,11.10
2021,06,09,04,58,11.10
2021,06,09,04,59,11.10
2021,06,09,05,00,11.10
2021,06,09,05,01,11.10
2021,06,09,05,02,11.10
2021,06,09,05,03,11.10
2021,06,09,05,04,11.10
2021,06,09,05,05,11.10
2021,06,09,05,06,11.10
2021,06,09,05,07,11.10
2021,06,09,05,08,11.10
2021,06,09,05,09,11.10
2021,06,09,05,10,10.90
2021,06,09,05,11,10.90
2021,06,09,05,12,10.90
2021,06,09,05,13,10.90
2021,06,09,05,14,10.90
2021,06,09,05,15,10.90
2021,06,09,05,16,10.90
2021,06,09,05,17,10.90
2021,06,09,05,18,10.90
2021,06,09,05,19,10.90
2021,06,09,05,20,10.90
2021,06,09,05,21,10.90
2021,06,09,05,22,10.90
2021,06,09,05,23,10.90
2021,06,09,05,24,10.90
2021,06,09,05,25,10.90
2021,06,09,05,26,10.90
2021,06,09,05,27,10.80
2021,06,09,05,28,10.80
2021,06,09,05,29,10.80
2021,06,09,05,30,10.80
2021,06,09,05,31,10.80
2021,06,09,05,32,10.80
2021,06,09,05,33,10.80
2021,06,09,05,34,10.80
2021,06,09,05,35,10.80
2021,06,09,05,36,10.70
2021,06,09,05,37,10.70
2021,06,09,05,38,10.70
2021,06,09,05,39,10.70
2021,06,09,05,40,10.70
2021,06,09,05,41,10.70
2021,06,09,05,42,10.70
2021,06,09,05,43,10.60
2021,06,09,05,44,10.60
2021,06,09,05,45,10.60
2021,06,09,05,46,10.60
2021,06,09,05,47,10.60
2021,06,09,05,48,10.60
2021,06,09,05,49,10.60
2021,06,09,05,50,10.60
2021,06,09,05,51,10.60
2021,06,09,05,52,10.60
2021,06,09,05,53,10.60
2021,06,09,05,54,10.60
2021,06,09,05,55,10.60
2021,06,09,05,56,10.60
2021,06,09,05,57,10.70
2021,06,09,05,58,10.70
2021,06,09,05,59,10.70
2021,06,09,06,00,10.70
2021,06,09,06,01,10.80
2021,06,09,06,02,10.80
2021,06,09,06,03,10.80
2021,06,09,06,04,10.80
2021,06,09,06,05,10.90
2021,06,09,06,06,10.90
2021,06,09,06,07,10.90
2021,06,09,06,08,10.90
2021,06,09,06,09,10.90
2021,06,09,06,10,10.90
2021,06,09,06,11,10.90
2021,06,09,06,12,10.90
2021,06,09,06,13,10.90
2021,06,09,06,14,10.90
2021,06,09,06,15,10.90
2021,06,09,06,16,10.90
2021,06,09,06,17,10.90
2021,06,09,06,18,10.90
2021,06,09,06,19,10.90
2021,06,09,06,20,10.90
2021,06,09,06,21,11.10
2021,06,09,06,22,11.10
2021,06,09,06,23,11.10
2021,06,09,06,24,11.10
2021,06,09,06,25,11.10
2021,06,09,06,26,11.20
2021,06,09,06,27,11.20
2021,06,09,06,28,11.30
2021,06,09,06,29,11.30
2021,06,09,06,30,11.40
2021,06,09,06,31,11.40
2021,06,09,06,32,11.40
2021,06,09,06,33,11.40
2021,06,09,06,34,11.50
2021,06,09,06,35,11.60
2021,06,09,06,36,11.60
2021,06,09,06,37,11.60
2021,06,09,06,38,11.60
2021,06,09,06,39,11.60
2021,06,09,06,40,11.60
2021,06,09,06,41,11.70
2021,06,09,06,42,11.70
2021,06,09,06,43,11.70
2021,06,09,06,44,11.70
2021,06,09,06,45,11.70
2021,06,09,06,46,11.80
2021,06,09,06,47,11.80
2021,06,09,06,48,11.80
2021,06,09,06,49,11.80
2021,06,09,06,50,11.80
2021,06,09,06,51,11.80
2021,06,09,06,52,11.80
2021,06,09,06,53,11.80
2021,06,09,06,54,11.80
2021,06,09,06,55,11.80
2021,06,09,06,56,11.80
2021,06,09,06,57,11.80
2021,06,09,06,58,11.80
2021,06,09,06,59,11.80
2021,06,09,07,00,11.80
2021,06,09,07,01,11.80
2021,06,09,07,02,11.80
2021,06,09,07,03,11.90
2021,06,09,07,04,11.90
2021,06,09,07,05,11.90
2021,06,09,07,06,11.90
2021,06,09,07,07,11.90
2021,06,09,07,08,11.90
2021,06,09,07,09,11.90
2021,06,09,07,10,11.90
2021,06,09,07,11,11.90
2021,06,09,07,12,11.90
2021,06,09,07,13,11.90
2021,06,09,07,14,11.90
2021,06,09,07,15,11.90
2021,06,09,07,16,11.90
2021,06,09,07,17,11.90
2021,06,09,07,18,11.90
2021,06,09,07,19,11.90
2021,06,09,07,20,11.90
2021,06,09,07,21,12.00
2021,06,09,07,22,12.00
2021,06,09,07,23,12.00
2021,06,09,07,24,12.00
2021,06,09,07,25,12.10
2021,06,09,07,26,12.10
2021,06,09,07,27,12.20
2021,06,09,07,28,12.10
2021,06,09,07,29,12.00
2021,06,09,07,30,12.00
2021,06,09,07,31,12.00
2021,06,09,07,32,11.90
2021,06,09,07,33,12.00
2021,06,09,07,34,12.00
2021,06,09,07,35,12.00
2021,06,09,07,36,12.00
2021,06,09,07,37,12.00
2021,06,09,07,38,12.00
2021,06,09,07,39,12.00
2021,06,09,07,40,12.00
2021,06,09,07,41,12.00
2021,06,09,07,42,12.10
2021,06,09,07,43,12.10
2021,06,09,07,44,12.10
2021,06,09,07,45,12.10
2021,06,09,07,46,12.10
2021,06,09,07,47,12.10
2021,06,09,07,48,12.00
2021,06,09,07,49,12.00
2021,06,09,07,50,12.00
2021,06,09,07,51,12.00
2021,06,09,07,52,12.00
2021,06,09,07,53,12.00
2021,06,09,07,54,12.10
2021,06,09,07,55,12.20
2021,06,09,07,56,12.20
2021,06,09,07,57,12.30
2021,06,09,07,58,12.30
2021,06,09,07,59,12.30
2021,06,09,08,00,12.40
2021,06,09,08,01,12.30
2021,06,09,08,02,12.30
2021,06,09,08,03,12.30
2021,06,09,08,04,12.30
2021,06,09,08,05,12.30
2021,06,09,08,06,12.30
2021,06,09,08,07,12.30
2021,06,09,08,08,12.30
2021,06,09,08,09,12.30
2021,06,09,08,10,12.30
2021,06,09,08,11,12.30
2021,06,09,08,12,12.30
2021,06,09,08,13,12.30
2021,06,09,08,14,12.40
2021,06,09,08,15,12.50
2021,06,09,08,16,12.50
2021,06,09,08,17,12.50
2021,06,09,08,18,12.40
2021,06,09,08,19,12.30
2021,06,09,08,20,12.30
2021,06,09,08,21,12.40
2021,06,09,08,22,12.40
2021,06,09,08,23,12.40
2021,06,09,08,24,12.40
2021,06,09,08,25,12.50
2021,06,09,08,26,12.50
2021,06,09,08,27,12.60
2021,06,09,08,28,12.70
2021,06,09,08,29,12.70
2021,06,09,08,30,12.70
2021,06,09,08,31,12.60
2021,06,09,08,32,12.60
2021,06,09,08,33,12.70
2021,06,09,08,34,12.70
2021,06,09,08,35,12.70
2021,06,09,08,36,12.60
2021,06,09,08,37,12.60
2021,06,09,08,38,12.50
2021,06,09,08,39,12.40
2021,06,09,08,40,12.30
2021,06,09,08,41,12.30
2021,06,09,08,42,12.30
2021,06,09,08,43,12.20
2021,06,09,08,44,12.10
2021,06,09,08,45,12.10
2021,06,09,08,46,12.10
2021,06,09,08,47,12.10
2021,06,09,08,48,12.20
2021,06,09,08,49,12.20
2021,06,09,08,50,12.10
2021,06,09,08,51,12.00
2021,06,09,08,52,12.00
2021,06,09,08,53,12.00
2021,06,09,08,54,11.90
2021,06,09,08,55,11.90
2021,06,09,08,56,11.80
2021,06,09,08,57,11.90
2021,06,09,08,58,11.90
2021,06,09,08,59,12.00
2021,06,09,09,00,12.10
2021,06,09,09,01,12.20
2021,06,09,09,02,12.30
2021,06,09,09,03,12.40
2021,06,09,09,04,12.50
2021,06,09,09,05,12.60
2021,06,09,09,06,12.60
2021,06,09,09,07,12.80
2021,06,09,09,08,12.80
2021,06,09,09,09,12.80
2021,06,09,09,10,12.80
2021,06,09,09,11,12.80
2021,06,09,09,12,12.80
2021,06,09,09,13,12.70
2021,06,09,09,14,12.70
2021,06,09,09,15,12.80
2021,06,09,09,16,12.80
2021,06,09,09,17,12.90
2021,06,09,09,18,12.80
2021,06,09,09,19,12.90
2021,06,09,09,20,12.90
2021,06,09,09,21,13.00
2021,06,09,09,22,13.00
2021,06,09,09,23,13.00
2021,06,09,09,24,13.10
2021,06,09,09,25,13.10
2021,06,09,09,26,13.10
2021,06,09,09,27,13.20
2021,06,09,09,28,13.30
2021,06,09,09,29,13.30
2021,06,09,09,30,13.30
2021,06,09,09,31,13.30
2021,06,09,09,32,13.30
2021,06,09,09,33,13.30
2021,06,09,09,34,13.30
2021,06,09,09,35,13.30
2021,06,09,09,36,13.30
2021,06,09,09,37,13.30
2021,06,09,09,38,13.30
2021,06,09,09,39,13.30
2021,06,09,09,40,13.30
2021,06,09,09,41,13.30
2021,06,09,09,42,13.20
2021,06,09,09,43,13.00
2021,06,09,09,44,12.90
2021,06,09,09,45,12.80
2021,06,09,09,46,12.70
2021,06,09,09,47,12.60
2021,06,09,09,48,12.50
2021,06,09,09,49,12.40
2021,06,09,09,50,12.40
2021,06,09,09,51,12.40
2021,06,09,09,52,12.50
2021,06,09,09,53,12.60
2021,06,09,09,54,12.70
2021,06,09,09,55,12.80
2021,06,09,09,56,13.00
2021,06,09,09,57,13.10
2021,06,09,09,58,13.20
2021,06,09,09,59,13.20
2021,06,09,10,00,13.10
2021,06,09,10,01,13.10
2021,06,09,10,02,13.00
2021,06,09,10,03,13.00
2021,06,09,10,04,13.20
2021,06,09,10,05,13.30
2021,06,09,10,06,13.40
2021,06,09,10,07,13.40
2021,06,09,10,08,13.40
2021,06,09,10,09,13.30
2021,06,09,10,10,13.30
2021,06,09,10,11,13.40
2021,06,09,10,12,13.40
2021,06,09,10,13,13.30
2021,06,09,10,14,13.10
2021,06,09,10,15,13.00
2021,06,09,10,16,12.90
2021,06,09,10,17,12.90
2021,06,09,10,18,12.90
2021,06,09,10,19,12.90
2021,06,09,10,20,12.90
2021,06,09,10,21,12.80
2021,06,09,10,22,12.90
2021,06,09,10,23,12.90
2021,06,09,10,24,12.90
2021,06,09,10,25,12.90
2021,06,09,10,26,12.90
2021,06,09,10,27,12.90
2021,06,09,10,28,13.00
2021,06,09,10,29,13.10
2021,06,09,10,30,13.20
2021,06,09,10,31,13.20
2021,06,09,10,32,13.20
2021,06,09,10,33,13.10
2021,06,09,10,34,13.10
2021,06,09,10,35,13.20
2021,06,09,10,36,13.20
2021,06,09,10,37,13.30
2021,06,09,10,38,13.50
2021,06,09,10,39,13.70
2021,06,09,10,40,13.90
2021,06,09,10,41,14.10
2021,06,09,10,42,14.10
2021,06,09,10,43,14.10
2021,06,09,10,44,14.10
2021,06,09,10,45,13.90
2021,06,09,10,46,13.70
2021,06,09,10,47,13.50
2021,06,09,10,48,13.60
2021,06,09,10,49,13.70
2021,06,09,10,50,13.90
2021,06,09,10,51,14.00
2021,06,09,10,52,14.10
2021,06,09,10,53,14.20
2021,06,09,10,54,14.10
2021,06,09,10,55,14.00
2021,06,09,10,56,13.90
2021,06,09,10,57,14.00
2021,06,09,10,58,13.90
2021,06,09,10,59,13.90
2021,06,09,11,00,13.90
2021,06,09,11,01,13.80
2021,06,09,11,02,13.90
2021,06,09,11,03,14.00
2021,06,09,11,04,14.00
2021,06,09,11,05,14.00
2021,06,09,11,06,14.00
2021,06,09,11,07,14.00
2021,06,09,11,08,14.10
2021,06,09,11,09,13.90
2021,06,09,11,10,13.70
2021,06,09,11,11,13.70
2021,06,09,11,12,13.70
2021,06,09,11,13,13.80
2021,06,09,11,14,13.90
2021,06,09,11,15,13.90
2021,06,09,11,16,13.90
2021,06,09,11,17,13.90
2021,06,09,11,18,13.80
2021,06,09,11,19,13.80
2021,06,09,11,20,13.70
2021,06,09,11,21,13.60
2021,06,09,11,22,13.60
2021,06,09,11,23,13.40
2021,06,09,11,24,13.30
2021,06,09,11,25,13.30
2021,06,09,11,26,13.30
2021,06,09,11,27,13.30
2021,06,09,11,28,13.40
2021,06,09,11,29,13.50
2021,06,09,11,30,13.70
2021,06,09,11,31,13.90
2021,06,09,11,32,14.10
2021,06,09,11,33,14.20
2021,06,09,11,34,14.20
2021,06,09,11,35,14.20
2021,06,09,11,36,14.20
2021,06,09,11,37,14.20
2021,06,09,11,38,14.00
2021,06,09,11,39,14.00
2021,06,09,11,40,14.00
2021,06,09,11,41,14.00
2021,06,09,11,42,14.00
2021,06,09,11,43,14.00
2021,06,09,11,44,14.00
2021,06,09,11,45,13.90
2021,06,09,11,46,13.80
2021,06,09,11,47,13.90
2021,06,09,11,48,14.00
2021,06,09,11,49,14.10
2021,06,09,11,50,14.10
2021,06,09,11,51,14.00
2021,06,09,11,52,14.00
2021,06,09,11,53,13.90
2021,06,09,11,54,13.90
2021,06,09,11,55,13.90
2021,06,09,11,56,14.00
2021,06,09,11,57,14.20
2021,06,09,11,58,14.20
2021,06,09,11,59,14.20
2021,06,09,12,00,14.40
2021,06,09,12,01,14.60
2021,06,09,12,02,14.80
2021,06,09,12,03,14.80
2021,06,09,12,04,14.80
2021,06,09,12,05,14.80
2021,06,09,12,06,14.80
2021,06,09,12,07,14.80
2021,06,09,12,08,14.80
2021,06,09,12,09,14.80
2021,06,09,12,10,14.80
2021,06,09,12,11,14.80
2021,06,09,12,12,14.90
2021,06,09,12,13,14.90
2021,06,09,12,14,14.90
2021,06,09,12,15,14.90
2021,06,09,12,16,14.90
2021,06,09,12,17,14.90
2021,06,09,12,18,15.10
2021,06,09,12,19,15.20
2021,06,09,12,20,15.20
2021,06,09,12,21,15.20
2021,06,09,12,22,15.20
2021,06,09,12,23,15.20
2021,06,09,12,24,15.20
2021,06,09,12,25,15.10
2021,06,09,12,26,15.00
2021,06,09,12,27,14.80
2021,06,09,12,28,14.70
2021,06,09,12,29,14.40
2021,06,09,12,30,14.20
2021,06,09,12,31,14.20
2021,06,09,12,32,14.10
2021,06,09,12,33,13.90
2021,06,09,12,34,13.90
2021,06,09,12,35,13.90
2021,06,09,12,36,13.90
2021,06,09,12,37,13.90
2021,06,09,12,38,14.00
2021,06,09,12,39,13.90
2021,06,09,12,40,13.80
2021,06,09,12,41,14.00
2021,06,09,12,42,14.30
2021,06,09,12,43,14.30
2021,06,09,12,44,14.30
2021,06,09,12,45,14.20
2021,06,09,12,46,14.10
2021,06,09,12,47,14.20
2021,06,09,12,48,14.20
2021,06,09,12,49,14.20
2021,06,09,12,50,14.20
2021,06,09,12,51,14.30
2021,06,09,12,52,14.40
2021,06,09,12,53,14.40
2021,06,09,12,54,14.40
2021,06,09,12,55,14.40
2021,06,09,12,56,14.50
2021,06,09,12,57,14.70
2021,06,09,12,58,14.90
2021,06,09,12,59,15.10
2021,06,09,13,00,15.10
2021,06,09,13,01,15.10
2021,06,09,13,02,14.90
2021,06,09,13,03,14.70
2021,06,09,13,04,14.60
2021,06,09,13,05,14.50
2021,06,09,13,06,14.40
2021,06,09,13,07,14.40
2021,06,09,13,08,14.40
2021,06,09,13,09,14.40
2021,06,09,13,10,14.30
2021,06,09,13,11,14.20
2021,06,09,13,12,14.20
2021,06,09,13,13,14.20
2021,06,09,13,14,14.10
2021,06,09,13,15,14.10
2021,06,09,13,16,14.10
2021,06,09,13,17,14.20
2021,06,09,13,18,14.30
2021,06,09,13,19,14.60
2021,06,09,13,20,14.60
2021,06,09,13,21,14.50
2021,06,09,13,22,14.40
2021,06,09,13,23,14.50
2021,06,09,13,24,14.50
2021,06,09,13,25,14.50
2021,06,09,13,26,14.30
2021,06,09,13,27,14.20
2021,06,09,13,28,14.20
2021,06,09,13,29,14.20
2021,06,09,13,30,14.50
2021,06,09,13,31,14.60
2021,06,09,13,32,14.60
2021,06,09,13,33,14.40
2021,06,09,13,34,14.20
2021,06,09,13,35,14.20
2021,06,09,13,36,14.10
2021,06,09,13,37,14.10
2021,06,09,13,38,14.20
2021,06,09,13,39,14.30
2021,06,09,13,40,14.30
2021,06,09,13,41,14.20
2021,06,09,13,42,14.20
2021,06,09,13,43,14.20
2021,06,09,13,44,14.20
2021,06,09,13,45,14.20
2021,06,09,13,46,14.20
2021,06,09,13,47,14.30
2021,06,09,13,48,14.50
2021,06,09,13,49,14.60
2021,06,09,13,50,14.60
2021,06,09,13,51,14.50
2021,06,09,13,52,14.60
2021,06,09,13,53,14.50
2021,06,09,13,54,14.40
2021,06,09,13,55,14.30
2021,06,09,13,56,14.20
2021,06,09,13,57,14.30
2021,06,09,13,58,14.40
2021,06,09,13,59,14.40
2021,06,09,14,00,14.40
2021,06,09,14,01,14.60
2021,06,09,14,02,14.70
2021,06,09,14,03,14.70
2021,06,09,14,04,14.80
2021,06,09,14,05,15.00
2021,06,09,14,06,15.20
2021,06,09,14,07,15.30
2021,06,09,14,08,15.10
2021,06,09,14,09,14.90
2021,06,09,14,10,14.80
2021,06,09,14,11,14.60
2021,06,09,14,12,14.40
2021,06,09,14,13,14.20
2021,06,09,14,14,14.20
2021,06,09,14,15,14.30
2021,06,09,14,16,14.60
2021,06,09,14,17,14.70
2021,06,09,14,18,14.80
2021,06,09,14,19,14.80
2021,06,09,14,20,14.90
2021,06,09,14,21,14.80
2021,06,09,14,22,14.90
2021,06,09,14,23,15.00
2021,06,09,14,24,15.00
2021,06,09,14,25,14.80
2021,06,09,14,26,14.80
2021,06,09,14,27,14.80
2021,06,09,14,28,14.70
2021,06,09,14,29,14.60
2021,06,09,14,30,14.60
2021,06,09,14,31,14.70
2021,06,09,14,32,14.70
2021,06,09,14,33,14.70
2021,06,09,14,34,14.80
2021,06,09,14,35,14.80
2021,06,09,14,36,14.80
2021,06,09,14,37,14.80
2021,06,09,14,38,14.80
2021,06,09,14,39,14.90
2021,06,09,14,40,15.10
2021,06,09,14,41,15.30
2021,06,09,14,42,15.20
2021,06,09,14,43,15.00
2021,06,09,14,44,14.90
2021,06,09,14,45,14.70
2021,06,09,14,46,14.60
2021,06,09,14,47,14.60
2021,06,09,14,48,14.60
2021,06,09,14,49,14.70
2021,06,09,14,50,14.80
2021,06,09,14,51,14.80
2021,06,09,14,52,14.80
2021,06,09,14,53,14.70
2021,06,09,14,54,14.60
2021,06,09,14,55,14.60
2021,06,09,14,56,14.50
2021,06,09,14,57,14.60
2021,06,09,14,58,14.60
2021,06,09,14,59,14.60
2021,06,09,15,00,14.60
2021,06,09,15,01,14.70
2021,06,09,15,02,14.80
2021,06,09,15,03,14.90
2021,06,09,15,04,14.90
2021,06,09,15,05,14.90
2021,06,09,15,06,14.90
2021,06,09,15,07,14.90
2021,06,09,15,08,14.80
2021,06,09,15,09,14.80
2021,06,09,15,10,14.80
2021,06,09,15,11,14.80
2021,06,09,15,12,14.80
2021,06,09,15,13,14.80
2021,06,09,15,14,14.80
2021,06,09,15,15,14.90
2021,06,09,15,16,14.90
2021,06,09,15,17,14.90
2021,06,09,15,18,14.90
2021,06,09,15,19,15.00
2021,06,09,15,20,15.00
2021,06,09,15,21,15.10
2021,06,09,15,22,15.30
2021,06,09,15,23,15.40
2021,06,09,15,24,15.60
2021,06,09,15,25,15.80
2021,06,09,15,26,15.90
2021,06,09,15,27,16.10
2021,06,09,15,28,16.10
2021,06,09,15,29,16.10
2021,06,09,15,30,15.90
2021,06,09,15,31,15.80
2021,06,09,15,32,15.80
2021,06,09,15,33,15.70
2021,06,09,15,34,15.80
2021,06,09,15,35,15.80
2021,06,09,15,36,15.70
2021,06,09,15,37,15.60
2021,06,09,15,38,15.60
2021,06,09,15,39,15.50
2021,06,09,15,40,15.50
2021,06,09,15,41,15.40
2021,06,09,15,42,15.50
2021,06,09,15,43,15.50
2021,06,09,15,44,15.50
2021,06,09,15,45,15.60
2021,06,09,15,46,15.70
2021,06,09,15,47,15.70
2021,06,09,15,48,15.70
2021,06,09,15,49,15.60
2021,06,09,15,50,15.60
2021,06,09,15,51,15.60
2021,06,09,15,52,15.70
2021,06,09,15,53,15.80
2021,06,09,15,54,15.80
2021,06,09,15,55,15.80
2021,06,09,15,56,15.80
2021,06,09,15,57,15.70
2021,06,09,15,58,15.70
2021,06,09,15,59,15.60
2021,06,09,16,00,15.70
2021,06,09,16,01,15.70
2021,06,09,16,02,15.70
2021,06,09,16,03,15.60
2021,06,09,16,04,15.60
2021,06,09,16,05,15.50
2021,06,09,16,06,15.50
2021,06,09,16,07,15.60
2021,06,09,16,08,15.70
2021,06,09,16,09,15.70
2021,06,09,16,10,15.70
2021,06,09,16,11,15.70
2021,06,09,16,12,15.80
2021,06,09,16,13,15.70
2021,06,09,16,14,15.70
2021,06,09,16,15,15.60
2021,06,09,16,16,15.60
2021,06,09,16,17,15.50
2021,06,09,16,18,15.50
2021,06,09,16,19,15.60
2021,06,09,16,20,15.70
2021,06,09,16,21,15.80
2021,06,09,16,22,15.80
2021,06,09,16,23,15.80
2021,06,09,16,24,15.80
2021,06,09,16,25,15.90
2021,06,09,16,26,16.00
2021,06,09,16,27,16.10
2021,06,09,16,28,16.00
2021,06,09,16,29,15.90
2021,06,09,16,30,15.90
2021,06,09,16,31,15.80
2021,06,09,16,32,15.80
2021,06,09,16,33,15.90
2021,06,09,16,34,15.80
2021,06,09,16,35,15.90
2021,06,09,16,36,15.90
2021,06,09,16,37,15.80
2021,06,09,16,38,15.70
2021,06,09,16,39,15.70
2021,06,09,16,40,15.80
2021,06,09,16,41,15.90
2021,06,09,16,42,15.90
2021,06,09,16,43,15.90
2021,06,09,16,44,15.90
2021,06,09,16,45,15.80
2021,06,09,16,46,15.80
2021,06,09,16,47,15.70
2021,06,09,16,48,15.70
2021,06,09,16,49,15.60
2021,06,09,16,50,15.60
2021,06,09,16,51,15.60
2021,06,09,16,52,15.70
2021,06,09,16,53,15.80
2021,06,09,16,54,15.80
2021,06,09,16,55,15.80
2021,06,09,16,56,15.80
2021,06,09,16,57,15.80
2021,06,09,16,58,15.80
2021,06,09,16,59,15.80
2021,06,09,17,00,15.80
2021,06,09,17,01,15.80
2021,06,09,17,02,15.80
2021,06,09,17,03,15.80
2021,06,09,17,04,15.70
2021,06,09,17,05,15.70
2021,06,09,17,06,15.70
2021,06,09,17,07,15.70
2021,06,09,17,08,15.50
2021,06,09,17,09,15.30
2021,06,09,17,10,15.30
2021,06,09,17,11,15.30
2021,06,09,17,12,15.30
2021,06,09,17,13,15.30
2021,06,09,17,14,15.30
2021,06,09,17,15,15.30
2021,06,09,17,16,15.30
2021,06,09,17,17,15.30
2021,06,09,17,18,15.40
2021,06,09,17,19,15.50